Location: Caltech
(34.1382°N, 118.1253°W)
Time: 19:57:02
(UTC-07:00)

Iridium 14 - Visible Passes

Search period start: 29 July 2014 00:00
Search period end: 08 August 2014 00:00
Orbit: 708 x 711 km, 86.5° (Epoch: 29 July)

Date Brightness Start Highest point End Pass type
(mag) Time Alt. Az. Time Alt. Az. Time Alt. Az.
29 Jul 8.1 00:59:38 22° N 00:59:38 22° N 01:01:21 10° N visible
30 Jul 8.3 00:06:13 15° NNE 00:06:13 15° NNE 00:07:16 10° NNE visible
30 Jul 8.5 01:45:16 13° NW 01:45:16 13° NW 01:46:04 10° NNW visible
31 Jul 8.2 00:51:50 21° N 00:51:50 21° N 00:53:25 10° N visible
31 Jul 8.3 23:58:24 15° NNE 23:58:24 15° NNE 23:59:25 10° NNE visible
01 Aug 8.6 01:37:26 12° NW 01:37:26 12° NW 01:38:00 10° NNW visible
02 Aug 8.2 00:44:00 20° N 00:44:00 20° N 00:45:29 10° N visible
02 Aug 8.3 23:50:33 16° NNE 23:50:33 16° NNE 23:51:34 10° NNE visible
03 Aug 8.6 01:29:36 11° NW 01:29:36 11° NW 01:29:55 10° NW visible
04 Aug 8.3 00:36:09 19° N 00:36:09 19° N 00:37:32 10° N visible
04 Aug 8.3 23:42:41 16° NNE 23:42:41 16° NNE 23:43:43 10° NNE visible
05 Aug 8.7 01:21:44 10° NW 01:21:44 10° NW 01:21:49 10° NW visible
06 Aug 8.3 00:28:16 18° NNW 00:28:16 18° NNW 00:29:34 10° N visible
06 Aug 8.3 23:34:48 16° NNE 23:34:48 16° NNE 23:35:50 10° NNE visible
